Zurück zum Katalog

COSMOS 1867 COOLANT

AktivLEO
NORAD 39655·DEBRIS·🇷🇺 Russia

Gestartet Jul 10, 1987 von Baikonur Cosmodrome

Loading…

Nächste Überflüge (nächste 24 Stunden)

TLE

AktuellSource: Space-Track

Epoche: Sep 13, 2026, 21:43 UTC

1 39655U 87060S   26256.90520986  .00000133  00000-0  83901-4 0  9991
2 39655  65.0044 121.8753 0018132 279.2522  80.6513 14.33790789649328

Verfolge COSMOS 1867 COOLANT in Echtzeit mit AllMySat

Download on the App Store